Wind_Speed
13 12 12 11 12 12 13 13 12 13 14 15 16 16 17 18 18 18 18 17 17 17 17 18 19 20 21 21 21 21 21 21 21 21 21 20 19 19 20 19 17 16
17 16 14 13 13 13 14 14 14 13 14 15 16 16 17 18 18 18 18 17 17 17 18 18 18 20 21 22 21 21 21 21 21 22 22 22 21 20 20 20 19 18
18 19 17 14 13 13 14 15 16 15 15 16 16 17 17 18 17 18 18 17 17 17 18 18 18 19 21 22 22 22 21 21 22 22 22 23 22 21 20 20 20 19
18 20 19 16 14 14 14 16 17 17 16 16 17 17 18 18 17 17 17 18 17 17 18 18 18 18 20 21 22 22 22 22 22 22 22 23 22 21 20 20 20 20
17 18 20 19 17 15 16 17 18 18 18 17 17 17 17 17 18 17 17 17 17 18 18 19 18 18 18 19 20 22 22 22 22 22 22 22 22 21 21 20 20 20
17 18 19 20 20 18 18 18 18 18 18 18 17 16 16 16 17 17 16 17 17 17 18 18 18 18 18 18 19 20 21 21 22 22 22 22 22 22 21 21 21 21
21 20 20 21 22 22 21 20 19 17 17 17 16 16 16 16 16 17 17 17 17 17 17 18 18 18 18 18 19 20 21 21 22 22 22 22 23 23 22 22 22 21
23 23 22 21 22 23 23 22 20 17 17 17 16 16 17 17 17 17 17 17 17 17 17 17 18 19 19 18 19 19 20 21 22 22 22 22 23 23 23 22 22 22
23 24 24 23 22 23 24 23 20 17 17 17 17 17 18 18 18 18 18 18 18 18 17 17 18 19 20 19 19 20 21 22 22 22 23 22 22 22 22 22 22 22
24 24 25 25 25 24 23 20 18 18 19 19 19 18 18 19 19 18 17 17 18 18 18 18 18 19 20 20 20 20 21 22 23 23 23 23 22 22 21 21 21 21
25 25 26 26 24 23 21 19 18 20 21 20 19 19 18 19 19 18 16 16 18 19 19 19 19 19 20 20 21 22 22 22 23 23 23 23 22 22 22 21 20 20
26 26 25 23 21 21 22 20 20 21 20 19 20 19 19 19 18 17 16 16 18 20 20 20 20 19 19 20 21 22 22 23 23 23 23 23 23 23 23 22 22 21
28 27 24 22 21 22 22 21 20 20 20 20 20 19 19 20 19 18 18 18 20 21 21 21 20 20 19 20 21 22 22 23 23 23 23 23 24 24 24 24 24 24
27 25 23 21 22 22 22 21 20 21 21 21 20 20 21 21 21 20 20 21 22 22 22 21 21 20 20 20 21 21 22 23 24 24 24 24 25 25 25 25 26 27
18 19 20 21 21 21 21 20 19 20 22 22 21 22 22 22 21 21 21 22 23 24 23 22 21 21 21 21 21 22 22 23 24 25 25 26 26 26 26 27 27 28
9 13 16 18 18 18 18 17 16 17 18 19 19 19 19 20 19 19 20 20 21 22 22 21 21 21 20 21 22 22 23 23 24 25 25 26 26 26 27 27 27 28
8 10 12 13 13 12 11 9 8 9 10 11 12 12 13 13 14 15 16 16 16 16 17 17 18 19 20 21 22 23 23 24 24 25 25 25 26 26 27 28 28 28
8 10 10 10 9 7 5 3 1 2 3 5 7 8 9 9 10 10 12 13 13 12 11 11 13 14 16 18 19 21 23 26 27 26 26 26 26 27 27 27 28 28
9 9 8 7 5 3 2 1 2 2 2 3 5 6 7 7 7 7 7 9 10 9 8 8 9 10 12 13 14 16 18 22 24 26 27 27 28 28 28 28 28 28
7 6 4 3 4 4 4 4 3 1 1 2 3 5 5 6 6 5 5 6 7 7 8 9 11 12 12 13 13 14 15 15 18 21 24 25 27 29 29 29 29 28
7 6 4 4 5 5 6 6 6 5 5 5 5 6 6 6 6 6 7 7 7 8 10 11 13 13 14 14 14 14 14 14 15 17 20 21 23 24 25 26 27 28
7 6 4 3 4 5 6 7 7 8 8 7 7 7 7 8 7 7 8 8 9 10 11 12 14 14 14 15 15 14 14 15 15 16 17 18 19 19 19 20 22 24
4 2 1 2 2 2 4 5 7 8 8 8 7 7 7 8 7 8 8 9 9 10 11 12 13 13 13 13 13 14 14 14 15 15 15 16 17 18 18 18 19 20
4 2 2 3 3 3 3 4 5 7 7 7 7 7 7 8 8 8 9 9 9 10 11 12 12 12 12 12 12 12 12 13 14 15 16 16 17 18 19 19 20 20
4 4 5 5 5 4 4 4 4 5 6 7 7 8 9 9 10 10 10 10 11 11 12 13 14 14 13 13 13 13 13 14 15 15 16 17 18 19 20 21 21 21
4 5 5 5 5 6 6 6 6 7 7 8 9 11 11 11 12 12 12 13 13 14 14 15 16 16 16 16 15 16 16 17 17 18 18 19 20 21 21 21 22 21
Wind_Direction
257 258 256 252 249 246 243 239 235 233 236 239 240 240 239 239 241 243 244 243 241 238 236 236 236 233 230 228 228 228 228 231 234 237 239 240 239 237 237 238 239 239
254 254 255 255 254 253 252 251 245 236 232 234 237 239 239 238 240 242 244 243 241 240 238 236 236 236 235 232 230 230 231 233 236 239 241 242 242 241 239 238 238 240
262 257 255 257 257 257 256 256 254 248 238 233 233 235 237 237 237 239 242 242 241 240 239 238 236 236 237 235 232 232 233 235 237 239 239 239 240 241 241 240 239 240
275 268 261 256 253 255 256 255 256 256 251 241 235 233 234 236 236 236 238 239 239 239 240 239 237 235 236 236 234 233 233 235 238 239 238 237 237 239 242 242 243 242
272 269 263 256 252 252 254 253 253 256 257 253 246 239 236 237 237 236 237 238 237 237 239 240 239 236 235 234 233 233 233 235 237 238 237 236 238 240 242 244 245 245
264 264 260 256 255 256 256 254 253 255 259 261 260 253 246 244 244 243 242 242 241 240 240 242 243 241 237 235 233 233 234 235 237 238 237 237 239 242 243 244 244 245
265 265 261 256 256 258 258 258 256 255 258 261 263 260 253 248 248 249 249 248 248 246 244 245 246 246 244 240 237 237 237 237 238 239 239 239 241 243 245 245 245 246
264 265 263 260 256 255 257 260 258 254 253 255 255 255 253 248 243 243 246 248 249 250 250 249 249 250 249 246 244 243 243 243 243 243 243 244 245 246 248 250 250 251
264 263 261 259 256 252 254 258 259 255 253 251 247 248 251 251 244 240 241 244 245 246 247 250 252 253 253 251 249 248 248 250 250 249 249 248 248 249 250 253 255 257
262 262 261 259 258 256 256 261 263 255 250 249 247 246 249 252 251 248 248 249 248 245 243 244 247 251 253 253 252 251 250 252 254 255 255 254 253 251 252 253 256 258
260 261 262 262 263 261 262 267 265 253 248 248 248 247 247 250 254 253 251 251 252 249 245 243 244 246 249 252 253 253 253 253 255 257 259 260 260 260 259 258 258 259
260 258 260 262 263 260 260 263 261 254 253 254 250 247 247 250 254 254 251 250 251 249 245 242 242 243 246 249 251 253 254 255 256 257 259 261 264 264 264 263 261 259
265 260 259 258 256 258 260 261 260 257 258 259 256 252 251 252 254 254 254 253 253 252 248 244 241 241 243 246 249 251 253 255 256 256 257 258 260 262 263 263 261 258
269 260 255 251 251 258 264 263 261 259 258 260 259 254 250 251 252 255 256 255 254 253 251 250 247 243 242 244 245 247 249 251 253 253 254 254 255 257 258 258 258 257
269 255 248 247 250 258 262 261 261 260 258 260 261 255 251 251 255 259 260 257 254 252 251 251 251 249 246 245 245 245 245 246 248 249 251 252 253 254 254 255 256 257
259 246 243 245 248 252 256 259 264 264 261 262 262 256 250 250 256 261 261 257 254 254 253 252 251 251 250 249 249 250 249 248 247 247 248 250 252 253 254 254 254 254
246 241 240 243 247 248 252 259 267 267 263 262 262 255 250 254 261 264 260 256 255 256 257 254 252 252 253 252 251 252 253 252 251 249 248 249 250 252 253 255 256 257
265 259 256 257 257 249 246 249 265 284 283 278 275 271 268 272 278 274 263 254 251 251 251 250 250 250 251 251 252 252 252 251 250 249 249 250 251 252 254 256 260 262
277 269 264 265 261 243 250 319 14 13 339 305 287 280 276 275 279 280 267 253 248 246 244 245 247 249 250 253 255 257 255 251 247 247 249 252 253 254 254 255 257 260
267 253 238 249 269 274 282 292 300 301 267 252 254 260 262 263 264 264 257 247 243 242 242 246 250 253 256 258 259 262 263 259 251 248 250 253 254 255 256 256 257 258
255 246 221 214 232 241 250 258 258 251 242 237 241 247 250 253 253 251 248 245 243 244 246 250 253 255 256 259 261 263 265 264 260 255 254 256 257 258 259 260 260 262
264 269 257 236 232 233 238 245 248 248 248 249 249 247 246 249 252 255 256 256 254 254 255 257 258 258 257 259 262 265 267 266 265 263 262 261 261 261 261 261 262 264
261 275 334 342 303 258 239 236 237 239 242 246 247 243 243 247 252 256 258 259 259 260 262 264 266 266 266 267 269 272 274 274 272 272 271 269 268 267 266 265 265 265
208 216 328 336 316 281 258 247 240 238 239 243 246 246 245 246 247 250 252 255 258 263 268 273 276 277 277 279 281 282 282 280 279 278 277 276 275 275 274 273 272 271
230 270 308 316 304 285 275 266 255 248 247 250 253 254 254 253 253 254 256 257 260 263 266 269 274 278 280 282 284 285 284 282 281 280 279 278 276 274 273 272 272 272
274 287 298 297 289 283 280 275 270 265 260 257 256 257 258 260 261 264 266 267 268 268 268 269 272 277 281 285 285 285 285 284 282 281 279 278 276 275 274 274 275 276
Height
5916 5916 5916 5916 5917 5917 5917 5916 5916 5917 5918 5919 5919 5920 5921 5922 5923 5923 5924 5926 5927 5927 5928 5928 5929 5929 5930 5932 5933 5934 5935 5936 5937 5938 5939 5940 5940 5941 5941 5942 5943 5943
5915 5915 5914 5914 5915 5915 5915 5915 5915 5915 5915 5916 5916 5918 5919 5919 5920 5921 5922 5923 5924 5925 5926 5926 5927 5927 5928 5929 5930 5932 5933 5934 5935 5936 5937 5937 5938 5939 5939 5940 5941 5941
5914 5914 5914 5913 5913 5913 5914 5914 5913 5913 5913 5913 5914 5915 5916 5917 5918 5919 5920 5921 5922 5923 5924 5924 5925 5925 5926 5927 5928 5929 5930 5931 5932 5933 5934 5935 5935 5936 5937 5938 5938 5939
5914 5913 5913 5913 5912 5912 5912 5912 5912 5912 5912 5912 5912 5913 5914 5915 5916 5917 5918 5918 5919 5920 5922 5922 5923 5923 5924 5925 5925 5926 5927 5928 5929 5930 5931 5932 5932 5933 5934 5935 5936 5937
5911 5911 5911 5911 5911 5910 5910 5909 5910 5910 5911 5911 5911 5912 5913 5914 5914 5915 5916 5917 5917 5918 5919 5920 5921 5921 5922 5922 5923 5924 5924 5925 5926 5927 5928 5929 5930 5931 5932 5933 5933 5934
5908 5907 5908 5909 5909 5909 5908 5908 5908 5909 5910 5910 5911 5912 5913 5913 5914 5915 5915 5915 5916 5917 5918 5918 5919 5919 5920 5920 5921 5921 5922 5923 5923 5925 5926 5927 5927 5928 5929 5930 5930 5931
5906 5906 5906 5906 5907 5907 5907 5907 5907 5908 5909 5909 5910 5911 5912 5912 5912 5913 5914 5914 5915 5916 5916 5917 5917 5918 5918 5919 5919 5920 5920 5921 5921 5922 5923 5924 5925 5926 5926 5927 5928 5928
5904 5903 5904 5904 5904 5904 5905 5905 5906 5907 5907 5907 5908 5908 5909 5909 5909 5910 5910 5912 5913 5914 5914 5915 5916 5916 5917 5917 5918 5918 5918 5919 5919 5920 5921 5922 5923 5923 5924 5925 5925 5926
5902 5901 5901 5901 5901 5901 5902 5904 5906 5907 5906 5905 5905 5906 5906 5907 5907 5906 5907 5908 5910 5911 5912 5913 5913 5914 5915 5916 5916 5916 5917 5917 5918 5918 5919 5919 5920 5921 5922 5922 5923 5923
5899 5899 5899 5899 5899 5899 5901 5903 5905 5905 5903 5902 5903 5904 5905 5906 5906 5906 5907 5907 5908 5908 5909 5910 5910 5911 5912 5914 5914 5915 5915 5916 5916 5917 5917 5918 5918 5919 5919 5920 5921 5921
5896 5896 5896 5897 5898 5899 5900 5902 5902 5900 5900 5900 5901 5902 5903 5903 5904 5905 5905 5905 5905 5906 5906 5907 5907 5908 5909 5911 5912 5912 5913 5913 5914 5915 5915 5916 5916 5917 5917 5918 5918 5918
5892 5893 5894 5895 5897 5897 5897 5898 5898 5897 5898 5899 5899 5900 5900 5901 5902 5902 5902 5902 5903 5903 5903 5903 5904 5905 5906 5908 5909 5910 5910 5911 5911 5912 5913 5913 5914 5914 5914 5915 5915 5915
5889 5890 5892 5893 5893 5893 5894 5896 5896 5896 5896 5896 5896 5897 5898 5898 5899 5899 5899 5899 5900 5900 5901 5901 5901 5902 5904 5905 5906 5906 5907 5908 5908 5909 5909 5910 5910 5910 5911 5911 5911 5911
5886 5888 5889 5890 5890 5890 5891 5893 5894 5894 5894 5894 5894 5895 5896 5896 5897 5897 5897 5897 5897 5898 5898 5899 5900 5900 5901 5902 5902 5903 5903 5904 5904 5905 5905 5906 5906 5906 5907 5907 5907 5907
5883 5884 5886 5887 5888 5888 5888 5889 5890 5891 5892 5892 5892 5893 5893 5894 5895 5895 5894 5894 5895 5895 5896 5897 5898 5898 5898 5899 5899 5899 5900 5900 5901 5901 5902 5902 5903 5903 5903 5903 5903 5903
5881 5882 5883 5884 5885 5885 5885 5886 5887 5887 5888 5888 5889 5889 5890 5891 5892 5892 5892 5891 5891 5892 5893 5895 5896 5896 5896 5896 5896 5896 5897 5897 5897 5898 5898 5899 5899 5899 5899 5899 5899 5899
5879 5880 5880 5881 5881 5882 5882 5883 5884 5885 5885 5886 5886 5887 5888 5888 5889 5889 5888 5889 5889 5889 5890 5891 5892 5893 5893 5893 5893 5894 5894 5894 5895 5895 5895 5896 5895 5895 5895 5895 5895 5896
5878 5878 5879 5878 5878 5879 5880 5881 5882 5882 5883 5883 5884 5884 5885 5885 5886 5886 5886 5886 5887 5887 5888 5888 5889 5889 5890 5890 5890 5891 5891 5891 5891 5892 5892 5892 5892 5892 5892 5892 5892 5893
5877 5877 5877 5877 5877 5878 5879 5880 5880 5880 5880 5881 5881 5882 5882 5883 5883 5883 5883 5884 5885 5885 5886 5886 5887 5887 5887 5888 5888 5888 5887 5887 5887 5887 5888 5889 5889 5888 5888 5888 5888 5889
5877 5877 5877 5877 5877 5878 5879 5879 5879 5879 5879 5879 5880 5880 5880 5880 5881 5881 5882 5882 5883 5884 5884 5884 5885 5885 5885 5885 5885 5885 5884 5884 5884 5884 5884 5885 5885 5885 5885 5885 5885 5885
5875 5875 5876 5876 5877 5878 5878 5878 5877 5878 5878 5879 5879 5879 5879 5879 5879 5880 5881 5881 5882 5882 5883 5883 5883 5883 5883 5883 5882 5882 5882 5882 5881 5881 5882 5882 5882 5881 5881 5881 5881 5882
5873 5873 5873 5874 5875 5876 5876 5876 5876 5876 5877 5878 5878 5878 5878 5878 5878 5879 5879 5880 5880 5881 5881 5880 5880 5880 5880 5880 5880 5880 5880 5880 5879 5879 5879 5879 5879 5879 5878 5878 5878 5878
5872 5871 5870 5871 5872 5873 5873 5874 5875 5875 5876 5876 5876 5876 5877 5877 5877 5878 5878 5878 5878 5878 5878 5878 5878 5878 5878 5878 5878 5878 5878 5878 5877 5877 5876 5876 5876 5875 5875 5875 5875 5875
5871 5870 5869 5870 5870 5871 5872 5873 5873 5874 5874 5875 5875 5875 5875 5876 5876 5876 5876 5877 5877 5876 5876 5876 5876 5876 5876 5876 5876 5876 5876 5875 5875 5874 5874 5873 5873 5872 5872 5872 5873 5873
5871 5871 5871 5871 5871 5871 5872 5872 5872 5873 5873 5873 5873 5874 5874 5874 5875 5875 5875 5875 5875 5875 5875 5874 5874 5874 5874 5874 5874 5873 5873 5872 5872 5872 5871 5871 5871 5871 5871 5871 5871 5870
5871 5871 5871 5871 5871 5871 5871 5871 5871 5872 5872 5872 5872 5872 5873 5873 5873 5873 5874 5874 5874 5873 5873 5873 5873 5872 5872 5872 5871 5871 5870 5870 5870 5870 5869 5869 5869 5869 5869 5869 5868 5867